Regional Weather Roundup
Issued by NWS

Home | Current Version | Previous Version | Text Only | Print | Product List | Glossary Off
Versions: 1 2 3 4 5 6 7 8 9 10 11 12 13 14 15 16 17 18 19 20 21 22 23 24 25 26 27 28 29 30 31 32 33 34 35 36 37 38 39 40 41 42 43 44 45 46 47 48 49 50

378
ASUS43 KOAX 200302
RWRNE

WEATHER ROUNDUP FOR NEBRASKA
NATIONAL WEATHER SERVICE OMAHA NE
900 PM CST THU JAN 19 2017

NOTES: SATELLITE DATA IS BEING USED TO AUGMENT CLOUD COVER ABOVE
       12000 FEET.
       "FAIR" INDICATES FEW OR NO CLOUDS BELOW 12,000 FEET WITH NO
       SIGNIFICANT WEATHER AND/OR OBSTRUCTIONS TO VISIBILITY.

  * THESE STATIONS DO NOT REPORT WEATHER SUCH AS RAIN...SNOW OR FOG.

NEZ001>004-019>022-054>056-200400-
NEBRASKA PANHANDLE

CITY           SKY/WX    TMP DP  RH WIND       PRES   REMARKS
SCOTTSBLUFF    CLOUDY    32  24  72 NW7       29.52R WCI  26
ALLIANCE       CLOUDY    26  22  84 CALM      29.50S
CHADRON        CLOUDY    30  23  75 SW7       29.49F WCI  23
KIMBALL        CLEAR     37  28  72 NW10      29.52F WCI  29
SIDNEY         CLEAR     34  25  69 NW10      29.53R WCI  26
$$

NEZ057>060-069>072-079>082-200400-
SOUTHWEST NEBRASKA

CITY           SKY/WX    TMP DP  RH WIND       PRES   REMARKS
NORTH PLATTE   CLOUDY    38  36  92 SW5       29.56R WCI  34
IMPERIAL       FOG       34  34 100 SW9       29.55S VSB 1/4 WCI  27
LEXINGTON      FOG       37  36  96 S6        29.56S VSB 1/4 WCI  32
MCCOOK         FOG       34  34 100 CALM      29.57R VSB 1/2
OGALLALA       FOG       33  33  97 SW5       29.55R VSB 1/2 WCI  29
$$

NEZ005>010-023>029-035>040-094-200400-
NORTH CENTRAL NEBRASKA

CITY           SKY/WX    TMP DP  RH WIND       PRES   REMARKS
VALENTINE      CLEAR     33  30  88 S9        29.47S WCI  25
AINSWORTH      CLOUDY    36  36 100 S14       29.49F WCI  27
BROKEN BOW     CLOUDY    40  38  93 SW10      29.53F WCI  33
O`NEILL        CLOUDY    42  40  95 S12       29.54S
ORD            CLOUDY    40  37  89 S8        29.55S WCI  34
THEDFORD       CLOUDY    36  35  96 SW12      29.51F FOG     WCI  27
$$

NEZ041-046>049-061>064-073>077-083>087-200400-
SOUTH CENTRAL NEBRASKA

CITY           SKY/WX    TMP DP  RH WIND       PRES   REMARKS
GRAND ISLAND   CLOUDY    39  39 100 S6        29.58F FOG     WCI  35
AURORA         FOG       38  38 100 SE7       29.59F VSB 1/2 WCI  32
HASTINGS       FOG       40  39  97 SE7       29.59F VSB 1/2
HEBRON         FOG       39  39  99 CALM      29.63S VSB 1/2
HOLDREGE       CLOUDY    39  38  97 SE7       29.55F FOG     WCI  34
KEARNEY *      CLOUDY    39  36  87 SE6       29.56  WCI  35
YORK           FOG       39  39 100 SE10      29.60F VSB 1/2 WCI  32
$$

NEZ011>018-030>034-042>045-200400-
NORTHEAST NEBRASKA

CITY           SKY/WX    TMP DP  RH WIND       PRES   REMARKS
NORFOLK        CLOUDY    39  37  92 SE10      29.59F WCI  32
ALBION         CLOUDY   N/A N/A N/A S8        29.58S
BLAIR          FOG       39  39  99 E5        29.65F VSB 1/4
FREMONT        FOG       38  38 100 CALM      29.64F VSB 1/2
TEKAMAH        FOG       37  37 100 SE7       29.65F VSB 1/4 WCI  32
WAYNE          CLOUDY    38  37  99 SE8       29.60F FOG     WCI  32
$$

NEZ050>053-065>068-078-088>093-200400-
SOUTHEAST NEBRASKA

CITY           SKY/WX    TMP DP  RH WIND       PRES   REMARKS
LINCOLN        FOG       41  40  96 E9        29.65F VSB 1
OMAHA EPPLEY   LGT RAIN  39  36  89 CALM      29.66F VSB 1/2
BEATRICE       FOG       40  40 100 CALM      29.64F VSB 1/4
FALLS CITY     FOG       43  43 100 CALM      29.65R VSB 1/2
NEBRASKA CITY  FOG       40  40 100 CALM      29.66S VSB 1/4
PLATTSMOUTH    FOG       39  37  93 CALM      29.65F VSB 1/2
$$

NEZ044-045-051>053-067-200400-
OMAHA AREA

CITY           SKY/WX    TMP DP  RH WIND       PRES   REMARKS
OMAHA EPPLEY   LGT RAIN  39  36  89 CALM      29.66F VSB 1/2
BLAIR          FOG       39  39  99 E5        29.65F VSB 1/4
FREMONT        FOG       38  38 100 CALM      29.64F VSB 1/2
MILLARD        FOG       41  40  97 CALM      29.66F VSB 1/2
OFFUTT AFB     DRZL/FOG  40  40 100 CALM      29.66S VSB 1/2
PLATTSMOUTH    FOG       39  37  93 CALM      29.65F VSB 1/2
WAHOO          FOG       37  36  96 E3        29.64F VSB 1/4
$$




USA.gov is the U.S. government's official web portal to all federal, state and local government web resources and services.